User: anonymous   Login
Location: Unspecified
(0.0000°N, 0.0000°E)
Time: 23:27:24
(UTC+00:00)
Language:

Geosat FO - Orbit

View from above orbital plane
View from above orbital plane
View from above satellite
View from above satellite

Ground track
Ground track

The orbit data is extracted from the following two-line orbital elements,

1 25157U 98007A   24108.70392203  .00019601  00000-0  79967-3 0  9993
2 25157 108.0271  33.2623 0127492 160.0425 200.5808 15.17455015404569
Epoch (UTC): 17 April 2024 16:53:38
Eccentricity: 0.0127492
inclination: 108.0271°
perigee height: 425 km
apogee height: 601 km
right ascension of ascending node: 33.2623°
argument of perigee: 160.0425°
revolutions per day: 15.17455015
mean anomaly at epoch: 200.5808°
orbit number at epoch: 40456

The dashed part of the orbit path shows where the satellite is in the earth's shadow,  

DLR